Change the Weather History Date:

Thursday, November 24, 2011

  Actual Average Record
Temperature  
Mean Temperature 76 °F -  
Max Temperature 80 °F 77 °F 82 °F (2001)
Min Temperature 73 °F 69 °F 68 °F (2002)
Cooling Degree Days 12    
Growing Degree Days 26 (Base 50)    
Moisture  
Dew Point 64 °F    
Average Humidity 66    
Maximum Humidity 76    
Minimum Humidity 56    
Precipitation  
Precipitation 0.00 in - - ()
Sea Level Pressure  
Sea Level Pressure 30.07 in    
Wind  
Wind Speed 9 mph (ENE)    
Max Wind Speed 13 mph    
Max Gust Speed 21 mph    
Visibility 10 miles    
Events Rain    
Averages and records for this station are not official NWS values.
T = Trace of Precipitation, MM = Missing Value Source: NWS Daily Summary

Daily Weather History Graph

Daily Weather History Graph

Search for Another Location

Airport or City:

Trip Planner

Search our weather history database for the weather conditions in past years. The results will help you decide how hot, cold, wet, or windy it might be!

Date:

Astronomy

Nov. 24, 2011 Rise Set
Actual Time 6:47 AM HST 5:47 PM HST
Civil Twilight 6:23 AM HST 6:11 PM HST
Nautical Twilight 5:56 AM HST 6:38 PM HST
Astronomical Twilight 5:29 AM HST 7:05 PM HST
Moon 6:16 AM HST (11/24) 5:33 PM HST (11/24)
Length of Visible Light 11h 47m
Length of Day
10h 59m
Waning Crescent, 0% of the Moon is Illuminated
Nov 24
Waning Crescent
Nov 24
New
Dec 1
First Quarter
Dec 10
Full
Dec 17
Last Quarter

Hourly Weather History & Observations

Time (HST) Temp. Heat Index Dew Point Humidity Pressure Visibility Wind Dir Wind Speed Gust Speed Precip Events Conditions
12:57 AM 73.9 °F - 60.1 °F 62% 30.10 in 10.0 mi East 9.2 mph 18.4 mph N/A   Scattered Clouds
1:24 AM - - - N/A% - - North - - N/A   Unknown
2:57 AM 73.9 °F - 64.0 °F 71% 30.07 in 10.0 mi ENE 6.9 mph - N/A   Overcast
3:00 AM - - - N/A% - - North - - N/A   Unknown
3:57 AM 73.9 °F - 60.1 °F 62% 30.06 in 10.0 mi East 10.4 mph 17.3 mph N/A   Partly Cloudy
4:57 AM 73.9 °F - 61.0 °F 64% 30.07 in 10.0 mi East 6.9 mph - N/A   Partly Cloudy
5:57 AM 73.9 °F - 62.1 °F 66% 30.08 in 10.0 mi ENE 5.8 mph - N/A   Clear
6:57 AM 73.9 °F - 62.1 °F 66% 30.09 in 10.0 mi ENE 8.1 mph - N/A   Mostly Cloudy
7:57 AM 75.0 °F - 63.0 °F 66% 30.10 in 10.0 mi ENE 11.5 mph 16.1 mph N/A   Mostly Cloudy
8:57 AM 75.0 °F - 66.0 °F 73% 30.12 in 10.0 mi ENE 6.9 mph 16.1 mph 0.00 in Rain Light Rain
9:57 AM 75.9 °F - 64.0 °F 67% 30.11 in 10.0 mi ENE 9.2 mph 17.3 mph 0.00 in   Overcast
10:57 AM 77.0 °F - 64.0 °F 64% 30.09 in 10.0 mi ENE 11.5 mph 20.7 mph N/A   Overcast
11:57 AM 79.0 °F - 64.0 °F 60% 30.08 in 10.0 mi East 9.2 mph - N/A   Overcast
12:57 PM 79.0 °F - 63.0 °F 58% 30.06 in 10.0 mi East 8.1 mph 16.1 mph N/A   Partly Cloudy
1:57 PM 80.1 °F 81.5 °F 63.0 °F 56% 30.04 in 10.0 mi East 6.9 mph - N/A   Mostly Cloudy
2:57 PM 79.0 °F - 63.0 °F 58% 30.03 in 10.0 mi ENE 10.4 mph - N/A   Mostly Cloudy
3:57 PM 77.0 °F - 64.9 °F 66% 30.02 in 10.0 mi ENE 12.7 mph - N/A   Overcast
4:57 PM 75.9 °F - 64.0 °F 67% 30.03 in 10.0 mi East 9.2 mph 18.4 mph N/A   Overcast
5:57 PM 75.0 °F - 64.0 °F 69% 30.04 in 10.0 mi East 10.4 mph 19.6 mph N/A   Mostly Cloudy
6:57 PM 75.2 °F - 64.4 °F 69% 30.07 in 10.0 mi East 5.8 mph - N/A   Mostly Cloudy
7:57 PM 75.0 °F - 64.9 °F 71% 30.07 in 10.0 mi Variable 4.6 mph - N/A   Overcast
8:57 PM 75.0 °F - 66.0 °F 73% 30.08 in 10.0 mi East 9.2 mph - N/A   Scattered Clouds
11:57 PM 75.0 °F - 66.9 °F 76% 30.09 in 10.0 mi East 8.1 mph - N/A   Overcast